This is the latest recevied weather packets stored in our database for station/object AI9F. If no packets are shown the sender has not sent any weather packets the latest 10 day(s).
| Time | Temp. | Humidity | Pressure | Rain* | Wind** | Luminosity | Snow |
|---|---|---|---|---|---|---|---|
| 1777333074 | 17.22° C | 97% | 1004.9 hPa | 0 mm | - | 36 W/m² | - |
| 1777332771 | 17.22° C | 97% | 1005 hPa | 0 mm | - | 53 W/m² | - |
| 1777332468 | 17.22° C | 96% | 1005.1 hPa | 0 mm | - | 59 W/m² | - |
| 1777332164 | 16.67° C | 96% | 1005.4 hPa | 0 mm | - | 77 W/m² | - |
| 1777331862 | 16.67° C | 96% | 1005.6 hPa | 0 mm | - | 47 W/m² | - |
| 1777331559 | 16.67° C | 96% | 1006 hPa | 1.27 mm | - | 58 W/m² | - |
| 1777331257 | 16.67° C | 96% | 1006.2 hPa | 1.27 mm | - | 92 W/m² | - |
| 1777330954 | 16.67° C | 96% | 1006.3 hPa | 1.27 mm | - | 14 W/m² | - |
| 1777330650 | 16.67° C | 96% | 1006.3 hPa | 0 mm | - | 38 W/m² | - |
| 1777330348 | 16.67° C | 96% | 1006.3 hPa | 0 mm | - | 26 W/m² | - |
| 1777330045 | 16.67° C | 96% | 1006.3 hPa | 0 mm | - | 91 W/m² | - |
| 1777329745 | 16.67° C | 96% | 1006.4 hPa | 0 mm | - | 38 W/m² | - |
| 1777329442 | 16.67° C | 96% | 1006.1 hPa | 0 mm | - | 63 W/m² | - |
| 1777329140 | 16.67° C | 96% | 1006 hPa | 0 mm | - | 114 W/m² | - |
| 1777328837 | 16.67° C | 96% | 1006.4 hPa | 0 mm | - | 145 W/m² | - |
| 1777328535 | 16.67° C | 96% | 1006.3 hPa | 0 mm | - | 139 W/m² | - |
| 1777328233 | 16.67° C | 96% | 1006.3 hPa | 0 mm | - | 115 W/m² | - |
| 1777327931 | 16.67° C | 96% | 1006.4 hPa | 0 mm | - | 151 W/m² | - |
| 1777327628 | 16.67° C | 96% | 1006.1 hPa | 0 mm | - | 128 W/m² | - |
| 1777327326 | 16.67° C | 96% | 1006.3 hPa | 0 mm | - | 73 W/m² | - |
| 1777327023 | 16.67° C | 97% | 1006.2 hPa | 0 mm | - | 74 W/m² | - |
| 1777326720 | 16.67° C | 97% | 1006.7 hPa | 0 mm | - | 112 W/m² | - |
| 1777326416 | 16.67° C | 97% | 1007 hPa | 0 mm | - | 82 W/m² | - |
| 1777326115 | 16.67° C | 97% | 1006.7 hPa | 1.78 mm | - | 129 W/m² | - |
| 1777325812 | 16.67° C | 97% | 1006.7 hPa | 1.78 mm | - | 149 W/m² | - |
* Rain latest hour (hover to see other rain measurements)
** Current wind speed in m/s (hover to see current wind gust speed)